| time (UTC) | temp F | wind direction | speed MPH | gust MPH | rain 1hr in | rain 24hr in | rain mn in | humidity % | barometer mb |
| 20260504081506 | 44 | 201 | 0.0 | 5.0 | 0.00 | 0.00 | 0.00 | 90 | 1012.7 |
| 20260504050005 | 48 | 217 | 0.0 | 4.0 | 0.00 | 0.00 | 0.00 | 89 | 1014.1 |
| 20260504044510 | 48 | 217 | 1.0 | 5.0 | 0.00 | 0.00 | 0.00 | 87 | 1014.3 |
| 20260504043032 | 48 | 217 | 0.0 | 2.0 | 0.00 | 0.00 | 0.00 | 86 | 1014.4 |
| 20260504041530 | 48 | 216 | 0.0 | 4.0 | 0.00 | 0.00 | 0.00 | 85 | 1014.3 |
| 20260504040026 | 49 | 215 | 0.0 | 2.0 | 0.00 | 0.00 | 0.00 | 83 | 1014.6 |
| 20260504034534 | 49 | 216 | 2.0 | 4.0 | 0.00 | 0.00 | 0.00 | 81 | 1014.5 |
| 20260504033023 | 49 | 202 | 2.0 | 5.0 | 0.00 | 0.00 | 0.00 | 76 | 1014.3 |
| 20260504031523 | 49 | 217 | 2.0 | 7.0 | 0.00 | 0.00 | 0.00 | 75 | 1014.5 |
| 20260504030037 | 49 | 222 | 0.0 | 2.0 | 0.00 | 0.00 | 0.00 | 74 | 1014.5 |
| 20260504024520 | 50 | 222 | 0.0 | 3.0 | 0.00 | 0.00 | 0.00 | 74 | 1014.4 |
| 20260504023025 | 50 | 222 | 0.0 | 0.0 | 0.00 | 0.00 | 0.00 | 72 | 1014.4 |
| 20260504021518 | 50 | 222 | 0.0 | 0.0 | 0.00 | 0.00 | 0.00 | 70 | 1014.1 |
| 20260504020015 | 50 | 221 | 1.0 | 5.0 | 0.00 | 0.00 | 0.00 | 70 | 1013.9 |
| 20260504014532 | 50 | 218 | 1.0 | 4.0 | 0.00 | 0.00 | 0.00 | 69 | 1013.9 |
| 20260504013014 | 51 | 217 | 0.0 | 4.0 | 0.00 | 0.00 | 0.00 | 65 | 1013.8 |
| 20260504011515 | 51 | 218 | 0.0 | 4.0 | 0.00 | 0.00 | 0.00 | 66 | 1013.8 |
| 20260504010015 | 53 | 198 | 2.0 | 4.0 | 0.00 | 0.00 | 0.00 | 62 | 1013.9 |
| 20260504004512 | 54 | 119 | 1.0 | 4.0 | 0.00 | 0.00 | 0.00 | 59 | 1013.9 |
| 20260504003023 | 55 | 115 | 1.0 | 4.0 | 0.00 | 0.00 | 0.00 | 55 | 1013.8 |
| 20260504001510 | 57 | 101 | 2.0 | 5.0 | 0.00 | 0.00 | 0.00 | 51 | 1013.8 |
| 20260504000006 | 60 | 41 | 0.0 | 0.0 | 0.00 | 0.00 | 0.00 | 41 | 1013.9 |
| 20260503234515 | 61 | 41 | 0.0 | 2.0 | 0.00 | 0.00 | 0.00 | 39 | 1013.7 |
| 20260503233004 | 61 | 41 | 3.0 | 6.0 | 0.00 | 0.00 | 0.00 | 38 | 1013.8 |
| 20260503231503 | 61 | 44 | 3.0 | 7.0 | 0.00 | 0.00 | 0.00 | 38 | 1014.1 |
| 20260503230103 | 62 | 44 | 4.0 | 7.0 | 0.00 | 0.00 | 0.00 | 36 | 1014.2 |
| 20260503224558 | 62 | 14 | 5.0 | 9.0 | 0.00 | 0.00 | 0.00 | 35 | 1014.1 |
| 20260503223100 | 63 | 17 | 3.0 | 8.0 | 0.00 | 0.00 | 0.00 | 36 | 1014.4 |
| 20260503221557 | 63 | 67 | 6.0 | 12.0 | 0.00 | 0.00 | 0.00 | 35 | 1014.4 |
| 20260503220054 | 63 | 35 | 5.0 | 10.0 | 0.00 | 0.00 | 0.00 | 35 | 1014.4 |
| 20260503214552 | 64 | 17 | 7.0 | 13.0 | 0.00 | 0.00 | 0.00 | 34 | 1014.6 |
| 20260503213104 | 64 | 38 | 4.0 | 10.0 | 0.00 | 0.00 | 0.00 | 35 | 1014.6 |
| 20260503211548 | 64 | 9 | 7.0 | 19.0 | 0.00 | 0.00 | 0.00 | 35 | 1014.7 |
| 20260503210056 | 63 | 40 | 6.0 | 10.0 | 0.00 | 0.00 | 0.00 | 34 | 1014.9 |
| 20260503204550 | 63 | 80 | 7.0 | 12.0 | 0.00 | 0.00 | 0.00 | 34 | 1014.9 |
| 20260503203043 | 62 | 74 | 7.0 | 15.0 | 0.00 | 0.00 | 0.00 | 36 | 1015.2 |
| 20260503203040 | 62 | 71 | 7.0 | 15.0 | 0.00 | 0.00 | 0.00 | 36 | 1015.2 |
| 20260503201539 | 63 | 90 | 6.0 | 13.0 | 0.00 | 0.00 | 0.00 | 34 | 1015.5 |
| 20260503200037 | 63 | 360 | 8.0 | 13.0 | 0.00 | 0.00 | 0.00 | 33 | 1015.7 |
| 20260503194535 | 62 | 114 | 6.0 | 14.0 | 0.00 | 0.00 | 0.00 | 33 | 1016.3 |
| 20260503193035 | 63 | 135 | 4.0 | 9.0 | 0.00 | 0.00 | 0.00 | 33 | 1016.5 |
| 20260503191526 | 62 | 94 | 3.0 | 9.0 | 0.00 | 0.00 | 0.00 | 35 | 1016.7 |
| 20260503190027 | 62 | 62 | 7.0 | 13.0 | 0.00 | 0.00 | 0.00 | 37 | 1017.1 |
| 20260503184533 | 61 | 200 | 8.0 | 13.0 | 0.00 | 0.00 | 0.00 | 36 | 1017.1 |
| 20260503183019 | 61 | 65 | 6.0 | 14.0 | 0.00 | 0.00 | 0.00 | 38 | 1017.6 |
| 20260503181518 | 62 | 111 | 3.0 | 7.0 | 0.00 | 0.00 | 0.00 | 37 | 1017.8 |
| 20260503180022 | 60 | 182 | 4.0 | 9.0 | 0.00 | 0.00 | 0.00 | 38 | 1018.0 |
| 20260503174511 | 60 | 355 | 6.0 | 10.0 | 0.00 | 0.00 | 0.00 | 40 | 1018.3 |
| 20260503173014 | 60 | 65 | 2.0 | 9.0 | 0.00 | 0.00 | 0.00 | 39 | 1018.3 |
| 20260503171509 | 59 | 146 | 1.0 | 11.0 | 0.00 | 0.00 | 0.00 | 39 | 1018.6 |